Regional Weather Roundup
Issued by NWS State College, PA

Home | Current Version | Previous Version | Graphics & Text | Print | Product List | Glossary Off
Versions: 1 2 3 4 5 6 7 8 9 10 11 12 13 14 15 16 17 18 19 20 21 22 23 24 25 26 27 28 29 30 31 32 33 34 35 36 37 38 39 40 41 42 43 44 45 46 47 48 49 50

245
ASUS41 KCTP 270510
RWRCTP

REGIONAL WEATHER ROUNDUP
NATIONAL WEATHER SERVICE STATE COLLEGE PA
100 AM EDT THU JUL 27 2017

Note: "fair" indicates few or no clouds below 12,000 feet with no
significant weather and/or obstructions to visibility.

* = STATION THAT DOES NOT REPORT PRECIPITATION /E.G. RAIN...SNOW...ETC/
    THUNDER OR FOG.

PAZ002>004-007>009-013>016-020>023-029>032-270600-
WESTERN PENNSYLVANIA

CITY           SKY/WX    TMP DP  RH WIND       PRES   REMARKS
ERIE           CLOUDY    68  62  81 S12       30.02F
MEADVILLE      MOCLDY    65  63  93 CALM      30.07S
FRANKLIN*      MOCLDY    64  61  88 SE5       30.07F
NEW CASTLE     FAIR      64  63  96 E3        30.05F FOG
BEAVER COUNTY  NOT AVBL
BUTLER*        MOCLDY    64  63  94 CALM      30.07S
PITTSBURGH INT MOCLDY    67  65  93 S3        30.05F
PITTSBURGH     PTCLDY    68  62  81 S3        30.06F
INDIANA*       CLEAR     66  64  94 CALM      30.11F
LATROBE        PTCLDY    63  63 100 CALM      30.08F
WASHINGTON CO* MOCLDY    61  57  88 CALM      30.07F
$$

PAZ004>006-010>012-017>019-024>028-033>037-041-042-045-046-049>053-270600-
CENTRAL PENNSYLVANIA

CITY           SKY/WX    TMP DP  RH WIND       PRES   REMARKS
BRADFORD       PTCLDY    64  61  90 S5        30.10F
DUBOIS         CLOUDY    63  59  87 E7        30.08F
CLEARFIELD     CLOUDY    61  60  97 N5        30.11F
JOHNSTOWN      CLEAR     66  61  84 SW3       30.12F
ALTOONA        PTCLDY    62  62 100 CALM      30.11S
STATE COLLEGE  CLOUDY    64  60  88 CALM      30.11S
WILLIAMSPORT   PTCLDY    65  62  90 CALM      30.07F
SELINSGROVE    PTCLDY    64  63  96 CALM      30.09S
FT INDIANTOWN  CLOUDY    70  66  87 S3        30.11F
CAPITAL CITY   CLOUDY    72  64  76 SE6       30.09F
HARRISBURG     CLOUDY    71  67  87 S12       30.09F
YORK           MOCLDY    70  66  87 VRB6      30.10F
$$

PAZ038>040-043-044-047-048-054-055-060>062-067>071-270600-
EASTERN PENNSYLVANIA

CITY           SKY/WX    TMP DP  RH WIND       PRES   REMARKS
SCRANTON       CLOUDY    68  62  81 VRB5      30.10F
MOUNT POCONO   CLOUDY    61  61 100 S7        30.14F
ALLENTOWN      CLOUDY    69  61  75 CALM      30.12S
QUAKERTOWN*    CLOUDY    66  63  88 CALM      30.14S
READING        CLOUDY    69  65  86 SE5       30.11S
LANCASTER      CLOUDY    68  64  87 SE7       30.11F
COATESVILLE    MOCLDY    64  63  94 VRB5      30.14F
POTTSTOWN      CLOUDY    66  62  87 VRB6      30.14F
BLUE BELL      PTCLDY    64  61  88 S5        30.13F
DOYLESTOWN     MOCLDY    64  61  90 S3        30.12F
WILLOW GROVE   NOT AVBL
NORTH PHILA    PTCLDY    68  61  78 S5        30.14F
PHILADELPHIA   MOCLDY    67  61  81 SE6       30.13F
$$




USA.gov is the U.S. government's official web portal to all federal, state and local government web resources and services.